Lexington Weather

Lexington, Massachusetts, USA

70°F
8/17/2022 5:53pm 
  • Lexington Conditions: Overcast
  • Temperature: 70.2°F / 21.2°CColder 0.5°F than last hour.
  • Dew Point: 59.2°FIncreased 1.6°Fsince last hour.
  • Relative Humidity: 68%Increased 5.0% since last hour.
  • Wind: Calm, 10-min avg: Calm, gust: 1 mph
  • Barometer: 29.86 inFalling 0.02  inHg/hr Falling Slowly
  • Visibility: 10 miles
  • Rain Today: 0.00 in
  •   

Regional Weather Roundup
for Boston, MA

        
000
ASUS41 KBOX 170010
RWRBOX

REGIONAL WEATHER ROUNDUP
NATIONAL WEATHER SERVICE BOSTON/NORTON MA
800 PM EDT TUE AUG 16 2022

NOTE:  "FAIR" INDICATES FEW OR NO CLOUDS BELOW 12,000 FEET WITH NO 
SIGNIFICANT WEATHER AND/OR OBSTRUCTIONS TO VISIBILITY.

MAZALL-170100-
EASTERN MASSACHUSETTS
  
CITY           SKY/WX    TMP DP  RH WIND       PRES   REMARKS
BOSTON         CLOUDY    70  60  70 NE9       30.04S                  
6HR MIN TEMP:  69; 6HR MAX TEMP:  77;                                

BEVERLY        MOCLDY    68  63  84 N7        30.04S                  
LAWRENCE       PTCLDY    69  58  67 NE8       30.07R                  
BEDFORD        MOCLDY    71  56  58 NE8       30.03S                  
BLUE HILL      NOT AVBL                                               
NORWOOD        MOCLDY    70  32  24 NE5       30.03S                  
MARSHFIELD     CLOUDY    68  63  83 VRB6      30.01F                  
PLYMOUTH       CLOUDY    66  62  87 N10       30.01F                  
TAUNTON          N/A    N/A N/A N/A MISG      30.01S                  
NEW BEDFORD    MOCLDY    69  61  75 NE7       30.00S                  
$$

MAZALL-170100-
CAPE COD AND THE ISLANDS
  
CITY           SKY/WX    TMP DP  RH WIND       PRES   REMARKS
FALMOUTH       MOCLDY    66  61  82 NE12G18   30.00S                  
HYANNIS        CLOUDY    68  61  78 NE9       29.98S                  
CHATHAM        LGT RAIN  68  62  81 NE9       29.99S                  
NANTUCKET      CLOUDY    67  64  90 NE13      29.96F                  
MARTHAS VNYRD  LGT RAIN  69  62  78 NE13      29.98S                  
$$
 
MAZALL-170100-
CENTRAL AND WESTERN MASSACHUSETTS
  
CITY           SKY/WX    TMP DP  RH WIND       PRES   REMARKS
WORCESTER      MOCLDY    71  51  49 NE6       30.06S                  
6HR MIN TEMP:  71; 6HR MAX TEMP:  78;                                

FITCHBURG      MOCLDY    73  50  44 VRB3      30.06S                  
ORANGE         CLOUDY    74  54  49 E7        30.06S                  
SPRINGFIELD    CLOUDY    73  51  45 NE7       30.00S                  
WESTFIELD      CLOUDY    75  53  46 NE9       30.02S                  
NORTH ADAMS    CLOUDY    69  58  67 SE3       30.04S                  
PITTSFIELD     CLOUDY    73  49  42 E3        30.05R                  
$$
 
RIZALL-170100-
RHODE ISLAND
  
CITY           SKY/WX    TMP DP  RH WIND       PRES   REMARKS
PROVIDENCE     CLOUDY    70  60  70 NE14      30.02R                  
6HR MIN TEMP:  70; 6HR MAX TEMP:  81;                                

NEWPORT        MOCLDY    68  59  73 NE14G20   30.00S                  
BLOCK ISLAND   CLOUDY    68  60  75 NE12G20   29.99S                  
SMITHFIELD     MOCLDY    68  58  70 NE6       30.04R                  
WESTERLY       CLOUDY    72  58  61 NE8       29.99R                  
$$
 
CTZALL-170100-
CONNECTICUT
  
CITY           SKY/WX    TMP DP  RH WIND       PRES   REMARKS
BRADLEY INTL   CLOUDY    76  54  46 NE7       30.01S                  
6HR MIN TEMP:  76; 6HR MAX TEMP:  85;                                

HARTFORD       CLOUDY    78  54  43 N12       29.99S                  
BRIDGEPORT     MOCLDY    75  62  64 E5        29.99R                  
DANBURY        MOCLDY    75  58  55 S3        30.02R                  
GROTON         CLOUDY    76  56  49 NE12      29.98R                  
NEW HAVEN      CLOUDY    75  65  70 CALM      29.99S                  
CHESTER        FAIR      73  54  49 NE8       30.00S                  
MERIDEN        CLOUDY    77  52  41 NE3       29.99S                  
WILLIMANTIC    MOCLDY    74  53  48 NE9       30.01S                  
OXFORD         CLOUDY    74  59  59 CALM      30.03R                  
$$

MEZ002-015-021-024-NHZ003-005-008-011-012-014-VTZ005-008-170100-
NORTHERN NEW ENGLAND
  
CITY           SKY/WX    TMP DP  RH WIND       PRES   REMARKS
PORTLAND ME    MOCLDY    69  54  58 CALM      30.07F                  
6HR MIN TEMP:  69; 6HR MAX TEMP:  78;                                

BANGOR ME      LGT RAIN  71  63  75 N5        30.08R                  
CONCORD NH     PTCLDY    72  54  53 VRB3      30.06S                  
MANCHESTER NH  MOCLDY    73  51  46 NE3       30.04F                  
NASHUA NH      PTCLDY    73  52  47 E5        30.06S                  
PORTSMOUTH NH  NOT AVBL                                               
JAFFREY NH     MOCLDY    72  54  53 CALM      30.08S                  
KEENE NH       MOCLDY    73  54  51 CALM        N/A                   
BURLINGTON VT  MOCLDY    75  58  55 CALM      30.08R                  
MT. WASHINGTON FOG       46  46 100 E29G36      N/A  VSB 1/16         
$$

NYZ052-076-170100-
EASTERN NEW YORK
  
CITY           SKY/WX    TMP DP  RH WIND       PRES   REMARKS
ALBANY         MOCLDY    76  55  48 N8        30.03R                  
6HR MIN TEMP:  76; 6HR MAX TEMP:  87; 6HR PCP: TRACE;                

NEW YORK CITY  MOCLDY    76  58  53 S8        29.98R                  
6HR MIN TEMP:  76; 6HR MAX TEMP:  84;                                

$$
 
ANZALL-170100-
MARINE OBSERVATIONS
  
STATION/POSITION TIME  TEMP    WIND        PRES    VSBY  WAVE
                       AIR SEA DIR/SP/G                  HT/PER
                 (UTC) (F)     (DEG/KT/KT) (MB)    (MI)  (FT/S)
BOSTON BUOY      NOT AVBL
BUZZARDS BAY     NOT AVBL
NANTUCKET SOUND  NOT AVBL
MASS BAY-STELLWA NOT AVBL
ISLE OF SHOALS   NOT AVBL
S OF BLOCK IS    NOT AVBL
$$

......................KEY.........................
  SKY/WX - SKY CONDITION/PRESENT WEATHER
  TMP    - TEMPERATURE IN FAHRENHEIT
  DWPT   - DEWPOINT IN FAHRENHEIT
  RH     - RELATIVE HUMIDITY IN PERCENT
  WIND   - DIRECTION AND SPEED IN MPH
  PRES   - MEAN SEA LEVEL PRESSURE IN INCHES OF HG
  WCI    - WIND CHILL INDEX
  VSB    - VISIBILITY IN MILES
  HX     - HEAT INDEX
  TC     - TEMPERATURE IN CELSIUS
  VRB    - VARIABLE WIND DIRECTION
  N/A    - NOT AVAILABLE
  
      

Other recent Regional Weather Roundups

Wed Aug 17, 5:10pm

Wed Aug 17, 4:10pm

Wed Aug 17, 3:10pm

Wed Aug 17, 2:10pm

Wed Aug 17, 1:10pm

Wed Aug 17, 12:10pm

Wed Aug 17, 11:10am

Wed Aug 17, 10:10am

Wed Aug 17, 9:10am

Wed Aug 17, 8:10am

Wed Aug 17, 7:10am

Wed Aug 17, 6:10am

Wed Aug 17, 5:10am

Wed Aug 17, 4:10am

Wed Aug 17, 3:10am

Wed Aug 17, 2:10am

Wed Aug 17, 1:10am

Wed Aug 17, 12:10am

Tue Aug 16, 11:10pm

Tue Aug 16, 10:10pm

Tue Aug 16, 9:10pm

Tue Aug 16, 7:10pm

Tue Aug 16, 6:10pm

Tue Aug 16, 5:10pm

Tue Aug 16, 4:10pm

Tue Aug 16, 3:10pm

Tue Aug 16, 2:10pm

Tue Aug 16, 1:10pm

Tue Aug 16, 12:10pm

Tue Aug 16, 11:10am

Tue Aug 16, 10:10am

Tue Aug 16, 9:10am

Tue Aug 16, 8:10am

Tue Aug 16, 7:10am

Tue Aug 16, 6:10am

Tue Aug 16, 5:10am

Tue Aug 16, 4:10am

Tue Aug 16, 3:10am

Tue Aug 16, 2:10am

Tue Aug 16, 1:10am

Tue Aug 16, 12:10am

Mon Aug 15, 11:10pm

Mon Aug 15, 10:10pm

Mon Aug 15, 9:10pm

Mon Aug 15, 8:10pm

Mon Aug 15, 7:10pm

Mon Aug 15, 6:10pm

Mon Aug 15, 5:10pm

Mon Aug 15, 4:10pm

Mon Aug 15, 3:10pm

Mon Aug 15, 2:10pm

Mon Aug 15, 1:10pm

Mon Aug 15, 12:10pm

Mon Aug 15, 11:10am

Mon Aug 15, 10:10am

Mon Aug 15, 9:10am

Mon Aug 15, 8:10am

Mon Aug 15, 7:10am

Mon Aug 15, 6:10am

Mon Aug 15, 5:10am

Mon Aug 15, 4:10am

Mon Aug 15, 3:10am

Mon Aug 15, 2:10am

Mon Aug 15, 1:10am

Mon Aug 15, 12:10am

Sun Aug 14, 11:10pm

Sun Aug 14, 10:10pm

Sun Aug 14, 9:10pm

Sun Aug 14, 8:10pm

Sun Aug 14, 7:10pm

Sun Aug 14, 6:10pm

Sun Aug 14, 5:10pm

Sun Aug 14, 4:10pm

Sun Aug 14, 3:10pm

Sun Aug 14, 2:10pm

Sun Aug 14, 1:10pm

Sun Aug 14, 12:10pm

Sun Aug 14, 11:10am

Sun Aug 14, 10:10am

Sun Aug 14, 9:10am

Sun Aug 14, 8:10am

Sun Aug 14, 7:10am

Sun Aug 14, 6:10am

Sun Aug 14, 5:10am

Sun Aug 14, 4:10am

Sun Aug 14, 3:10am

Sun Aug 14, 2:10am

Sun Aug 14, 1:10am

Sun Aug 14, 12:10am

Sat Aug 13, 11:10pm

Sat Aug 13, 10:10pm

Sat Aug 13, 9:10pm

Sat Aug 13, 8:10pm

Sat Aug 13, 7:10pm

Sat Aug 13, 6:10pm

Sat Aug 13, 5:10pm

Sat Aug 13, 4:10pm

Sat Aug 13, 3:10pm

Sat Aug 13, 2:10pm

Sat Aug 13, 1:10pm

Sat Aug 13, 12:10pm

Sat Aug 13, 11:10am

Sat Aug 13, 10:10am

Sat Aug 13, 9:10am

Sat Aug 13, 8:10am

Sat Aug 13, 7:10am

Sat Aug 13, 6:10am

Sat Aug 13, 5:10am

Sat Aug 13, 4:10am

Sat Aug 13, 3:10am

Sat Aug 13, 2:10am

Sat Aug 13, 1:10am

Sat Aug 13, 12:10am

Fri Aug 12, 11:10pm

Fri Aug 12, 10:10pm

Fri Aug 12, 9:10pm

Fri Aug 12, 8:10pm

Fri Aug 12, 7:10pm

Fri Aug 12, 6:10pm

Fri Aug 12, 5:10pm

Fri Aug 12, 4:10pm

Fri Aug 12, 3:10pm

Fri Aug 12, 2:10pm

Fri Aug 12, 1:10pm

Fri Aug 12, 12:10pm

Fri Aug 12, 11:10am

Fri Aug 12, 10:10am

Fri Aug 12, 9:10am

Fri Aug 12, 8:10am

Fri Aug 12, 7:10am

Fri Aug 12, 6:10am

Fri Aug 12, 5:10am

Fri Aug 12, 4:10am

Fri Aug 12, 3:10am

Fri Aug 12, 2:10am

Fri Aug 12, 1:10am

Fri Aug 12, 12:10am

Thu Aug 11, 11:10pm

Thu Aug 11, 10:10pm

Thu Aug 11, 9:10pm

Thu Aug 11, 8:10pm

Thu Aug 11, 7:10pm

Thu Aug 11, 6:10pm

Thu Aug 11, 5:10pm

Thu Aug 11, 4:10pm

Thu Aug 11, 3:10pm

Thu Aug 11, 2:10pm

Thu Aug 11, 1:10pm

Thu Aug 11, 12:10pm

Thu Aug 11, 11:10am

Thu Aug 11, 10:10am

Thu Aug 11, 9:10am

Thu Aug 11, 8:10am

Thu Aug 11, 7:10am

Thu Aug 11, 6:10am

Thu Aug 11, 5:10am

Thu Aug 11, 4:10am

Thu Aug 11, 3:10am

Thu Aug 11, 2:10am

Thu Aug 11, 1:10am

Thu Aug 11, 12:10am

Wed Aug 10, 11:10pm

Wed Aug 10, 10:10pm

Wed Aug 10, 9:10pm

Wed Aug 10, 8:10pm

Wed Aug 10, 7:10pm

Wed Aug 10, 6:10pm

Meta data:

ID: af7d0681-fbbb-4c99-8683-f3a5ec1eea62
Link: https://api.weather.gov/products/af7d0681-fbbb-4c99-8683-f3a5ec1eea62